"Pseudo-MPEC" for P222up6

Created 2024 Dec 1 12:31:29 UT using Find_Orb

Click here for an explanation of pseudo-MPECs

 
 Astrometry: 
     P222up6* C2024 11 28.29099102 37 13.335+24 44 26.14   ~BS92 21.38wXNEOCPF52
     P222up6  C2024 11 28.30369202 37 09.774+24 44 39.26   ~BS92 21.58wXNEOCPF52
     P222up6  C2024 11 28.32939502 37 02.493+24 45 05.35   ~BS92 21.88wXNEOCPF52
     P222up6  C2024 11 28.40266402 36 41.746+24 46 15.71   ~BSIH 21.41GVNEOCPF52
     P222up6  C2024 11 28.40329402 36 41.565+24 46 16.26   ~BSIH 21.52GVNEOCPF52
     P222up6 KC2024 11 29.09737302 33 46.674+24 57 19.12   ~BT32 21.70GVNEOCPI52
     P222up6 KC2024 11 29.10046702 33 45.803+24 57 21.60   ~BT32 20.99GVNEOCPI52
     P222up6 KC2024 11 29.10356302 33 44.863+24 57 25.20   ~BT32 21.33GVNEOCPI52
     P222up6 KC2024 11 29.10666602 33 44.075+24 57 28.87   ~BT32 21.31GVNEOCPI52
     P222up6 7C2024 11 30.77793402 26 04.333+25 25 48.15   ~BUNV 21.6 GVNEOCPZ84
     P222up6 7C2024 11 30.78377902 26 02.569+25 25 55.37   ~BUNV 21.1 GVNEOCPZ84
     P222up6 7C2024 11 30.78963702 26 00.770+25 26 01.63   ~BUNV 21.2 GVNEOCPZ84
     P222up6 1C2024 11 30.84860002 25 41.185+25 26 53.90   ~BULV 21.1 GXNEOCP033
     P222up6 1C2024 11 30.85881002 25 38.017+25 27 04.90   ~BULV 21.0 GXNEOCP033
     P222up6  C2024 12 01.38585002 22 59.130+25 36 32.00   ~C1Al 21.5 RVNEOCP691
     P222up6  C2024 12 01.39354002 22 56.720+25 36 38.70   ~C1Al 21.4 RVNEOCP691
     P222up6  C2024 12 01.40128002 22 54.410+25 36 46.10   ~C1Al 21.4 RVNEOCP691

Station data:
(033) Karl Schwarzschild Observatory, Tautenburg  (N50.980139 E11.711240)
   Germany.  Observer B. Stecklum. 1.34-m f/3 Schmidt + CCD.
(691) Steward Observatory, Kitt Peak - Spacewatch  (N31.962174 W111.600327)
   US/Arizona.  Observer J. V. Scotti. 0.9-m f/3 reflector + CCD.
(F52) Pan-STARRS 2, Haleakala  (N20.707382 W156.255910)  US/Hawaii.
   Observers J. Bulger, T. Dukes, T. Lowe, A. Schultz, M. Willman. Measurers
   K. Chambers, S. Chastel, T. de Boer, L. Denneau, J. Fairlamb, H.
   Flewelling, M. Huber, C.-C. Lin, E. Magnier, Y. Ramanjooloo, R. Wainscoat,
   R. Weryk. 1.8-m Ritchey-Chrétien + CCD.
(I52) Steward Observatory, Mt. Lemmon Station  (N32.442570 W110.788920)
   US/Arizona.  Observers T. A. Pruyne, B. M. Africano, E. J. Christensen, G.
   A. Farneth, D. C. Fuls, A. R. Gibbs, A. D. Grauer, H. Gröller, J. A.
   Johnson, R. A. Kowalski, S. M. Larson, G. J. Leonard, D. Rankin, R. L.
   Seaman, F. C. Shelly, K. W. Wierzchoś. 1.0-m prime focus + CCD.
(Z84) Calar Alto-Schmidt  (N37.224006 W2.548160)  Spain.  Observer F. Ocaña.
   Measurers E. Schwab, D. Koschny, M. Micheli. 0.8-m f/3 Schmidt + CCD.

Orbital elements:  P222up6
   Perihelion 2025 Jan 31.71401 +/- 0.0435 TT = 17:08:10 (JD 2460707.21401)
Epoch 2024 Dec  1.0 TT = JDT 2460645.5   Earth MOID: 0.0180   Ma: 0.0027
M 322.25164435 +/- 0.14             (J2000 ecliptic)             AutoNEOCP
n   0.61166589 +/- 0.00199          Peri.   99.66179 +/- 0.010
a   1.37444238 +/- 0.00298          Node    39.83995 +/- 0.024
e   0.3553104 +/- 0.00171           Incl.    2.49827 +/- 0.009
P   1.611/588.545d         H 24.90  G  0.15   U  8.6
q 0.88608870 +/- 0.00043    Q 1.86279606 +/- 0.00639
From 17 observations 2024 Nov. 28-Dec. 1; mean residual 0".29
Residuals in arcseconds: 
241128 F52  .04+  .05-    241129 I52  .27+  .31-    241130 033  .28-  .06+    
241128 F52  .11+  .04-    241129 I52  .58-  .13-    241130 033  .23-  .17+    
241128 F52  .29-  .03+    241129 I52  .67+  .11+    241201 691  .14-  .11-    
241128 F52  .05+  .02+    241130 Z84  .15-  .01+    241201 691  .42-  .38-    
241128 F52  .02+  .01-    241130 Z84  .20+  .39+    241201 691  .74+  .03+    
241129 I52  .21+  .65+    241130 Z84  .19+  .18-    

Ephemerides (geocentric):
Date (UTC) HH   RA             Dec           delta  r     elong  mag " sig PA
---- --------  ------------   ------------  ------ ------ -----  --- --------
2024 12 01 13  02 22 16.953   +25 39 42.07  .11386 1.0864 150.3 21.6 .274  73
2024 12 01 14  02 22 04.469   +25 40 26.79  .11370 1.0862 150.2 21.6 .296  75
2024 12 01 15  02 21 51.957   +25 41 11.57  .11355 1.0860 150.1 21.6 .319  76
2024 12 01 16  02 21 39.418   +25 41 56.40  .11339 1.0857 150.1 21.6 .343  78
2024 12 01 17  02 21 26.851   +25 42 41.29  .11324 1.0855 150.0 21.6 .368  79
2024 12 01 18  02 21 14.256   +25 43 26.23  .11308 1.0853 149.9 21.6 .393  80
2024 12 01 19  02 21 01.633   +25 44 11.23  .11293 1.0851 149.8 21.6 .419  82
2024 12 01 20  02 20 48.982   +25 44 56.29  .11278 1.0849 149.7 21.6 .446  82
2024 12 01 21  02 20 36.303   +25 45 41.39  .11262 1.0846 149.6 21.6 .474  83
2024 12 01 22  02 20 23.595   +25 46 26.56  .11247 1.0844 149.5 21.6 .502  84
2024 12 01 23  02 20 10.860   +25 47 11.77  .11231 1.0842 149.5 21.6 .532  85
2024 12 02 00  02 19 58.096   +25 47 57.04  .11216 1.0840 149.4 21.6 .562  86
2024 12 02 01  02 19 45.304   +25 48 42.37  .11201 1.0837 149.3 21.6 .592  86
2024 12 02 02  02 19 32.484   +25 49 27.75  .11185 1.0835 149.2 21.6 .624  87
2024 12 02 03  02 19 19.635   +25 50 13.18  .11170 1.0833 149.1 21.5 .656  87
2024 12 02 04  02 19 06.757   +25 50 58.67  .11155 1.0831 149.0 21.5 .689  88
2024 12 02 05  02 18 53.851   +25 51 44.22  .11140 1.0829 148.9 21.5 .722  88
2024 12 02 06  02 18 40.916   +25 52 29.81  .11124 1.0826 148.8 21.5 .756  89
2024 12 02 07  02 18 27.952   +25 53 15.47  .11109 1.0824 148.8 21.5 .791  89
2024 12 02 08  02 18 14.959   +25 54 01.17  .11094 1.0822 148.7 21.5 .827  89
2024 12 02 09  02 18 01.938   +25 54 46.93  .11079 1.0820 148.6 21.5 .864  90
2024 12 02 10  02 17 48.887   +25 55 32.75  .11063 1.0818 148.5 21.5 .901  90
2024 12 02 11  02 17 35.807   +25 56 18.62  .11048 1.0815 148.4 21.5 .939  90
2024 12 02 12  02 17 22.698   +25 57 04.54  .11033 1.0813 148.3 21.5 .978  91
2024 12 02 13  02 17 09.559   +25 57 50.51  .11018 1.0811 148.2 21.5 1.02  91
2024 12 02 14  02 16 56.391   +25 58 36.54  .11003 1.0809 148.1 21.5 1.06  91
2024 12 02 15  02 16 43.193   +25 59 22.63  .10988 1.0807 148.1 21.5 1.10  92
2024 12 02 16  02 16 29.966   +26 00 08.76  .10973 1.0804 148.0 21.5 1.14  92
2024 12 02 17  02 16 16.710   +26 00 54.95  .10958 1.0802 147.9 21.5 1.18  92
2024 12 02 18  02 16 03.423   +26 01 41.20  .10942 1.0800 147.8 21.5 1.23  92
2024 12 02 19  02 15 50.107   +26 02 27.49  .10927 1.0798 147.7 21.5 1.27  92
2024 12 02 20  02 15 36.761   +26 03 13.84  .10912 1.0796 147.6 21.5 1.31  93
2024 12 02 21  02 15 23.385   +26 04 00.25  .10897 1.0793 147.5 21.5 1.36  93
2024 12 02 22  02 15 09.978   +26 04 46.71  .10882 1.0791 147.4 21.5 1.41  93
2024 12 02 23  02 14 56.542   +26 05 33.22  .10867 1.0789 147.3 21.5 1.45  93
2024 12 03 00  02 14 43.075   +26 06 19.78  .10852 1.0787 147.3 21.5 1.50  93
2024 12 03 01  02 14 29.578   +26 07 06.40  .10837 1.0784 147.2 21.5 1.55  93
2024 12 03 02  02 14 16.051   +26 07 53.06  .10822 1.0782 147.1 21.5 1.60  94
2024 12 03 03  02 14 02.493   +26 08 39.79  .10808 1.0780 147.0 21.5 1.65  94
2024 12 03 04  02 13 48.904   +26 09 26.56  .10793 1.0778 146.9 21.5 1.70  94
2024 12 03 05  02 13 35.285   +26 10 13.39  .10778 1.0776 146.8 21.5 1.75  94
2024 12 03 06  02 13 21.635   +26 11 00.27  .10763 1.0773 146.7 21.5 1.81  94
2024 12 03 07  02 13 07.954   +26 11 47.20  .10748 1.0771 146.6 21.5 1.86  94
2024 12 03 08  02 12 54.242   +26 12 34.18  .10733 1.0769 146.5 21.5 1.91  94
2024 12 03 09  02 12 40.500   +26 13 21.22  .10718 1.0767 146.4 21.5 1.97  94
2024 12 03 10  02 12 26.726   +26 14 08.30  .10703 1.0765 146.4 21.5 2.03  94
2024 12 03 11  02 12 12.920   +26 14 55.44  .10689 1.0762 146.3 21.5 2.08  95
2024 12 03 12  02 11 59.084   +26 15 42.64  .10674 1.0760 146.2 21.5 2.14  95